RYR2PQ ESGG-EDDH

Flight info

Callsign RYR2PQ
Flight time 0h 57m
Altitude 36000
Route VADIN DCT ALASA/N0449F350 M852 EKERN/N0404F230 T905 BOGMU BOGMU3N
Aircraft B737/M-SDE2E3FGHIRWXY/LB1

Departure

Time 2026-05-06 18:50
Airport Göteborg Landvetter Airport (ESGG)

Arrival

Time 2026-05-06 19:48
Airport Hamburg Helmut Schmidt Airport (EDDH)
Time Latitude Longitude Altitude Speed Heading
2026-05-06 18:19 57.66423 12.29040 516 ft 0 kts 115°
2026-05-06 18:19 57.66423 12.29039 516 ft 0 kts 115°
2026-05-06 18:39 57.66426 12.29027 515 ft 4 kts 116°
2026-05-06 18:39 57.66438 12.28982 515 ft 4 kts 116°
2026-05-06 18:40 57.66437 12.28918 515 ft 3 kts 26°
2026-05-06 18:40 57.66419 12.28902 515 ft 0 kts 26°
2026-05-06 18:43 57.66420 12.28903 515 ft 1 kts 26°
2026-05-06 18:43 57.66437 12.28919 515 ft 5 kts 26°
2026-05-06 18:44 57.66477 12.28956 515 ft 8 kts 26°
2026-05-06 18:44 57.66531 12.28958 515 ft 8 kts 346°
2026-05-06 18:44 57.66544 12.28949 515 ft 0 kts 341°
2026-05-06 18:45 57.66553 12.28951 515 ft 3 kts
2026-05-06 18:45 57.66587 12.28974 515 ft 7 kts 12°
2026-05-06 18:45 57.66616 12.28940 515 ft 9 kts 301°
2026-05-06 18:46 57.66693 12.28871 515 ft 13 kts 19°
2026-05-06 18:46 57.66784 12.28944 515 ft 15 kts 12°
2026-05-06 18:46 57.66826 12.28831 512 ft 10 kts 226°
2026-05-06 18:46 57.66778 12.28745 512 ft 6 kts 235°
2026-05-06 18:47 57.66773 12.28733 512 ft 0 kts 236°
2026-05-06 18:48 57.66773 12.28732 512 ft 1 kts 236°
2026-05-06 18:48 57.66761 12.28697 512 ft 6 kts 236°
2026-05-06 18:49 57.66726 12.28599 511 ft 12 kts 236°
2026-05-06 18:49 57.66674 12.28460 511 ft 13 kts 235°
2026-05-06 18:49 57.66629 12.28313 511 ft 13 kts 241°
2026-05-06 18:49 57.66550 12.28224 511 ft 20 kts 206°
2026-05-06 18:50 57.66190 12.27895 508 ft 95 kts 206°
2026-05-06 18:50 57.65700 12.27448 502 ft 139 kts 206°
2026-05-06 18:50 57.64718 12.26540 814 ft 163 kts 208°
2026-05-06 18:50 57.63355 12.25317 1886 ft 168 kts 207°
2026-05-06 18:51 57.62303 12.24386 2709 ft 165 kts 206°
2026-05-06 18:51 57.61256 12.23580 3575 ft 165 kts 192°
2026-05-06 18:51 57.60049 12.23329 4130 ft 186 kts 185°
2026-05-06 18:51 57.58692 12.23209 4683 ft 202 kts 184°
2026-05-06 18:52 57.57725 12.23103 5054 ft 211 kts 184°
2026-05-06 18:52 57.56175 12.22937 5345 ft 242 kts 183°
2026-05-06 18:52 57.54423 12.22744 5939 ft 257 kts 186°
2026-05-06 18:52 57.52684 12.22265 7134 ft 247 kts 190°
2026-05-06 18:53 57.51002 12.21721 8198 ft 248 kts 190°
2026-05-06 18:53 57.49252 12.21240 8937 ft 258 kts 187°
2026-05-06 18:53 57.47447 12.20887 9780 ft 266 kts 186°
2026-05-06 18:53 57.45552 12.20507 10273 ft 284 kts 187°
2026-05-06 18:54 57.43566 12.19500 10450 ft 311 kts 209°
2026-05-06 18:54 57.41807 12.16919 10689 ft 334 kts 224°
2026-05-06 18:54 57.40134 12.13790 11204 ft 347 kts 226°
2026-05-06 18:54 57.38442 12.10527 11917 ft 353 kts 227°
2026-05-06 18:55 57.36732 12.07229 12745 ft 357 kts 227°
2026-05-06 18:55 57.34992 12.03900 13593 ft 360 kts 227°
2026-05-06 18:55 57.33233 12.00567 14377 ft 364 kts 227°
2026-05-06 18:55 57.31474 11.97256 15219 ft 365 kts 227°
2026-05-06 18:56 57.29683 11.93900 16072 ft 367 kts 227°
2026-05-06 18:56 57.27878 11.90530 16894 ft 370 kts 227°
2026-05-06 18:56 57.26055 11.87133 17699 ft 373 kts 227°
2026-05-06 18:56 57.24218 11.83717 18466 ft 376 kts 227°
2026-05-06 18:57 57.22370 11.80284 19179 ft 378 kts 227°
2026-05-06 18:57 57.20514 11.76841 19918 ft 379 kts 227°
2026-05-06 18:57 57.18651 11.73391 20640 ft 380 kts 227°
2026-05-06 18:57 57.16782 11.69933 21338 ft 382 kts 227°
2026-05-06 18:58 57.14897 11.66467 22014 ft 384 kts 226°
2026-05-06 18:58 57.12740 11.63506 22627 ft 392 kts 211°
2026-05-06 18:58 57.10240 11.61416 23302 ft 395 kts 207°
2026-05-06 18:58 57.07694 11.59478 23873 ft 398 kts 206°
2026-05-06 18:59 57.05119 11.57563 24371 ft 400 kts 206°
2026-05-06 18:59 57.02531 11.55643 24882 ft 402 kts 206°
2026-05-06 18:59 56.99938 11.53706 25385 ft 404 kts 206°
2026-05-06 18:59 56.97333 11.51747 25869 ft 405 kts 206°
2026-05-06 19:00 56.94748 11.49792 26337 ft 407 kts 206°
2026-05-06 19:00 56.92124 11.47802 26788 ft 409 kts 206°
2026-05-06 19:00 56.89485 11.45799 27244 ft 411 kts 206°
2026-05-06 19:00 56.86833 11.43785 27676 ft 413 kts 206°
2026-05-06 19:01 56.84169 11.41764 28091 ft 415 kts 206°
2026-05-06 19:01 56.81498 11.39740 28494 ft 417 kts 206°
2026-05-06 19:01 56.78806 11.37704 28866 ft 420 kts 206°
2026-05-06 19:01 56.76102 11.35662 29280 ft 421 kts 206°
2026-05-06 19:02 56.73400 11.33627 29903 ft 417 kts 205°
2026-05-06 19:02 56.70731 11.31622 30486 ft 413 kts 205°
2026-05-06 19:02 56.68172 11.29699 30857 ft 414 kts 205°
2026-05-06 19:02 56.65496 11.27691 31158 ft 416 kts 205°
2026-05-06 19:03 56.62819 11.25683 31499 ft 416 kts 205°
2026-05-06 19:03 56.60177 11.23707 31892 ft 416 kts 205°
2026-05-06 19:03 56.57503 11.21710 32278 ft 416 kts 205°
2026-05-06 19:03 56.54824 11.19712 32622 ft 416 kts 205°
2026-05-06 19:04 56.52146 11.17717 32968 ft 416 kts 205°
2026-05-06 19:04 56.49465 11.15724 33324 ft 416 kts 205°
2026-05-06 19:04 56.46786 11.13735 33648 ft 417 kts 205°
2026-05-06 19:04 56.44103 11.11746 33979 ft 417 kts 205°
2026-05-06 19:05 56.41419 11.09760 34245 ft 417 kts 205°
2026-05-06 19:05 56.38726 11.07769 34477 ft 418 kts 205°
2026-05-06 19:05 56.36026 11.05777 34687 ft 419 kts 205°
2026-05-06 19:05 56.33324 11.03786 34921 ft 420 kts 205°
2026-05-06 19:06 56.30612 11.01791 35149 ft 421 kts 205°
2026-05-06 19:06 56.27929 10.99820 35346 ft 422 kts 204°
2026-05-06 19:06 56.25202 10.97820 35583 ft 423 kts 204°
2026-05-06 19:06 56.22473 10.95822 35827 ft 423 kts 204°
2026-05-06 19:07 56.19739 10.93823 35960 ft 425 kts 204°
2026-05-06 19:07 56.14241 10.89813 35957 ft 425 kts 204°
2026-05-06 19:08 56.08768 10.85835 35956 ft 423 kts 204°
2026-05-06 19:08 56.03319 10.81885 35954 ft 422 kts 204°
2026-05-06 19:09 55.97907 10.77974 35954 ft 422 kts 204°
2026-05-06 19:09 55.92436 10.74032 35957 ft 422 kts 204°
2026-05-06 19:10 55.87006 10.70130 35964 ft 423 kts 204°
2026-05-06 19:10 55.81532 10.66210 35965 ft 425 kts 204°
2026-05-06 19:11 55.76040 10.62289 35966 ft 426 kts 204°
2026-05-06 19:11 55.70525 10.58364 35964 ft 428 kts 204°
2026-05-06 19:12 55.64996 10.54440 35963 ft 429 kts 204°
2026-05-06 19:12 55.59449 10.50516 35963 ft 430 kts 204°
2026-05-06 19:13 55.53887 10.46593 35966 ft 430 kts 204°
2026-05-06 19:13 55.48322 10.42680 35966 ft 431 kts 204°
2026-05-06 19:14 55.42752 10.38775 35967 ft 431 kts 204°
2026-05-06 19:14 55.37180 10.34881 35962 ft 430 kts 204°
2026-05-06 19:15 55.31616 10.31005 35962 ft 430 kts 204°
2026-05-06 19:15 55.26077 10.27157 35961 ft 430 kts 204°
2026-05-06 19:16 55.20523 10.23312 35939 ft 422 kts 204°
2026-05-06 19:16 55.17847 10.21466 35935 ft 406 kts 204°
2026-05-06 19:16 55.15258 10.19683 35917 ft 392 kts 204°
2026-05-06 19:16 55.12765 10.17967 35931 ft 378 kts 204°
2026-05-06 19:17 55.10320 10.16283 35946 ft 381 kts 204°
2026-05-06 19:17 55.05278 10.12810 35964 ft 397 kts 204°
2026-05-06 19:18 55.00072 10.09239 35964 ft 412 kts 203°
2026-05-06 19:18 54.94671 10.05551 35826 ft 417 kts 203°
2026-05-06 19:18 54.91980 10.03720 35282 ft 415 kts 203°
2026-05-06 19:19 54.89280 10.01882 34526 ft 418 kts 203°
2026-05-06 19:19 54.86558 10.00030 33673 ft 423 kts 203°
2026-05-06 19:19 54.83800 9.98158 32682 ft 427 kts 203°
2026-05-06 19:19 54.81003 9.96336 31742 ft 431 kts 199°
2026-05-06 19:20 54.78078 9.95096 30811 ft 435 kts 192°
2026-05-06 19:20 54.75106 9.94179 30083 ft 433 kts 191°
2026-05-06 19:20 54.72160 9.93293 29431 ft 426 kts 192°
2026-05-06 19:20 54.69242 9.92581 28713 ft 423 kts 185°
2026-05-06 19:21 54.66303 9.92739 27973 ft 422 kts 176°
2026-05-06 19:21 54.63453 9.93608 27234 ft 421 kts 167°
2026-05-06 19:21 54.60650 9.95073 26526 ft 419 kts 165°
2026-05-06 19:21 54.57848 9.96635 25825 ft 416 kts 164°
2026-05-06 19:22 54.55100 9.98185 25145 ft 414 kts 164°
2026-05-06 19:22 54.52371 9.99712 24483 ft 411 kts 165°
2026-05-06 19:22 54.49655 10.01214 23846 ft 409 kts 165°
2026-05-06 19:22 54.46992 10.02671 23163 ft 406 kts 165°
2026-05-06 19:23 54.44302 10.04131 22495 ft 402 kts 165°
2026-05-06 19:23 54.41651 10.05564 21894 ft 397 kts 165°
2026-05-06 19:23 54.39032 10.06975 21277 ft 393 kts 165°
2026-05-06 19:23 54.36435 10.08372 20649 ft 389 kts 165°
2026-05-06 19:24 54.33867 10.09750 20031 ft 386 kts 164°
2026-05-06 19:24 54.31319 10.11117 19440 ft 382 kts 164°
2026-05-06 19:24 54.28791 10.12471 18860 ft 379 kts 164°
2026-05-06 19:24 54.26315 10.13796 18293 ft 376 kts 164°
2026-05-06 19:25 54.23834 10.15122 17644 ft 373 kts 164°
2026-05-06 19:25 54.21366 10.16440 16986 ft 370 kts 164°
2026-05-06 19:25 54.18912 10.17749 16347 ft 368 kts 164°
2026-05-06 19:25 54.16479 10.19044 15754 ft 365 kts 164°
2026-05-06 19:26 54.14065 10.20328 15172 ft 362 kts 164°
2026-05-06 19:26 54.11664 10.21604 14585 ft 359 kts 164°
2026-05-06 19:26 54.09287 10.22866 14038 ft 356 kts 163°
2026-05-06 19:26 54.06902 10.23777 13647 ft 347 kts 180°
2026-05-06 19:27 54.04607 10.22996 13476 ft 330 kts 205°
2026-05-06 19:27 54.02686 10.21010 13248 ft 319 kts 219°
2026-05-06 19:27 54.01181 10.18269 12681 ft 319 kts 234°
2026-05-06 19:27 53.99948 10.15138 12139 ft 319 kts 237°
2026-05-06 19:28 53.98770 10.11949 11652 ft 317 kts 238°
2026-05-06 19:28 53.97623 10.08806 11189 ft 316 kts 238°
2026-05-06 19:28 53.96461 10.05642 10714 ft 315 kts 238°
2026-05-06 19:28 53.95297 10.02496 10255 ft 314 kts 238°
2026-05-06 19:29 53.94132 9.99372 9857 ft 313 kts 238°
2026-05-06 19:29 53.92972 9.96279 9603 ft 307 kts 238°
2026-05-06 19:29 53.91839 9.93268 9315 ft 297 kts 238°
2026-05-06 19:29 53.90736 9.90345 9032 ft 291 kts 238°
2026-05-06 19:30 53.89656 9.87487 8760 ft 285 kts 238°
2026-05-06 19:30 53.88590 9.84670 8498 ft 282 kts 238°
2026-05-06 19:30 53.87529 9.81871 8237 ft 281 kts 238°
2026-05-06 19:30 53.86488 9.79129 7980 ft 280 kts 238°
2026-05-06 19:31 53.85437 9.76364 7723 ft 278 kts 238°
2026-05-06 19:31 53.84390 9.73614 7470 ft 275 kts 237°
2026-05-06 19:31 53.82332 9.68213 6983 ft 270 kts 237°
2026-05-06 19:32 53.81322 9.65567 6919 ft 266 kts 237°
2026-05-06 19:32 53.80316 9.62935 6920 ft 268 kts 237°
2026-05-06 19:32 53.79242 9.60124 6958 ft 304 kts 237°
2026-05-06 19:32 53.78062 9.57041 6908 ft 311 kts 237°
2026-05-06 19:33 53.76908 9.54036 6706 ft 296 kts 237°
2026-05-06 19:33 53.75814 9.51190 6437 ft 282 kts 237°
2026-05-06 19:33 53.74597 9.48794 6339 ft 261 kts 216°
2026-05-06 19:33 53.73140 9.47123 6336 ft 248 kts 213°
2026-05-06 19:34 53.71719 9.45535 6344 ft 243 kts 213°
2026-05-06 19:34 53.70274 9.44018 6351 ft 247 kts 201°
2026-05-06 19:34 53.68586 9.43605 6383 ft 249 kts 173°
2026-05-06 19:34 53.66871 9.44113 6361 ft 250 kts 165°
2026-05-06 19:35 53.65190 9.44814 6356 ft 248 kts 163°
2026-05-06 19:35 53.63529 9.45526 6346 ft 245 kts 164°
2026-05-06 19:35 53.61880 9.46221 6352 ft 244 kts 164°
2026-05-06 19:35 53.60235 9.46900 6350 ft 243 kts 164°
2026-05-06 19:36 53.59153 9.47339 6306 ft 242 kts 164°
2026-05-06 19:36 53.56975 9.48211 5931 ft 241 kts 164°
2026-05-06 19:36 53.55892 9.48641 5774 ft 241 kts 164°
2026-05-06 19:36 53.54254 9.49290 5527 ft 242 kts 164°
2026-05-06 19:37 53.52620 9.49935 5272 ft 241 kts 164°
2026-05-06 19:37 53.50966 9.50382 4988 ft 243 kts 181°
2026-05-06 19:37 53.49386 9.49442 4730 ft 245 kts 216°
2026-05-06 19:37 53.48176 9.47451 4496 ft 243 kts 229°
2026-05-06 19:38 53.47092 9.45270 4233 ft 243 kts 230°
2026-05-06 19:38 53.46017 9.43077 4039 ft 244 kts 230°
2026-05-06 19:38 53.44934 9.40869 4002 ft 246 kts 230°
2026-05-06 19:38 53.43701 9.38891 3961 ft 245 kts 207°
2026-05-06 19:39 53.42107 9.38182 3981 ft 236 kts 174°
2026-05-06 19:39 53.40588 9.38941 3992 ft 230 kts 142°
2026-05-06 19:39 53.39563 9.40912 3978 ft 225 kts 110°
2026-05-06 19:39 53.39358 9.43439 3997 ft 220 kts 80°
2026-05-06 19:40 53.39689 9.45945 3982 ft 221 kts 75°
2026-05-06 19:40 53.40060 9.48287 3992 ft 222 kts 74°
2026-05-06 19:40 53.40463 9.50792 3982 ft 223 kts 74°
2026-05-06 19:40 53.40877 9.53292 3978 ft 222 kts 70°
2026-05-06 19:41 53.41686 9.55467 4001 ft 220 kts 48°
2026-05-06 19:41 53.42695 9.57390 3988 ft 220 kts 51°
2026-05-06 19:41 53.43666 9.59357 3989 ft 219 kts 51°
2026-05-06 19:41 53.44630 9.61329 3988 ft 218 kts 51°
2026-05-06 19:42 53.45589 9.63293 3989 ft 218 kts 51°
2026-05-06 19:42 53.46551 9.65258 3993 ft 217 kts 51°
2026-05-06 19:42 53.47508 9.67215 3992 ft 217 kts 51°
2026-05-06 19:42 53.48466 9.69171 3985 ft 214 kts 51°
2026-05-06 19:43 53.49388 9.71052 3935 ft 203 kts 51°
2026-05-06 19:43 53.50274 9.72859 3713 ft 200 kts 51°
2026-05-06 19:43 53.51148 9.74643 3490 ft 195 kts 51°
2026-05-06 19:43 53.51999 9.76377 3215 ft 189 kts 52°
2026-05-06 19:44 53.52813 9.78037 2959 ft 183 kts 51°
2026-05-06 19:44 53.53609 9.79657 2704 ft 176 kts 52°
2026-05-06 19:44 53.54378 9.81225 2461 ft 168 kts 52°
2026-05-06 19:44 53.55105 9.82705 2233 ft 160 kts 52°
2026-05-06 19:45 53.55795 9.84113 2028 ft 157 kts 52°
2026-05-06 19:45 53.56492 9.85530 1814 ft 155 kts 52°
2026-05-06 19:45 53.57135 9.86835 1593 ft 137 kts 51°
2026-05-06 19:45 53.57711 9.88008 1407 ft 126 kts 52°
2026-05-06 19:46 53.58268 9.89142 1256 ft 127 kts 51°
2026-05-06 19:46 53.58834 9.90293 1075 ft 128 kts 51°
2026-05-06 19:46 53.59397 9.91440 874 ft 126 kts 50°
2026-05-06 19:46 53.59964 9.92581 691 ft 127 kts 49°
2026-05-06 19:47 53.60529 9.93739 538 ft 130 kts 50°
2026-05-06 19:47 53.61111 9.94915 367 ft 131 kts 49°
2026-05-06 19:47 53.61693 9.96099 182 ft 132 kts 49°
2026-05-06 19:47 53.62272 9.97278 50 ft 127 kts 50°
2026-05-06 19:48 53.62785 9.98309 42 ft 99 kts 50°
2026-05-06 19:48 53.63150 9.99051 45 ft 65 kts 50°
2026-05-06 19:48 53.63302 9.99414 44 ft 17 kts 88°
2026-05-06 19:48 53.63286 9.99563 47 ft 6 kts 99°
2026-05-06 19:49 53.63280 9.99629 47 ft 5 kts 99°
2026-05-06 19:49 53.63279 9.99637 47 ft 0 kts 99°
2026-05-06 19:49 53.63277 9.99656 47 ft 5 kts 99°
2026-05-06 19:50 53.63252 9.99733 47 ft 10 kts 142°
2026-05-06 19:50 53.63184 9.99795 47 ft 11 kts 153°
2026-05-06 19:50 53.63115 9.99853 47 ft 11 kts 152°
2026-05-06 19:50 53.63049 9.99912 47 ft 11 kts 152°
2026-05-06 19:51 53.62984 9.99968 47 ft 10 kts 152°
2026-05-06 19:51 53.62922 10.00023 47 ft 10 kts 152°
2026-05-06 19:51 53.62857 10.00059 47 ft 10 kts 155°
2026-05-06 19:51 53.62797 10.00111 47 ft 10 kts 151°
2026-05-06 19:52 53.62747 10.00175 47 ft 8 kts 101°
2026-05-06 19:52 53.62765 10.00248 46 ft 3 kts 63°
2026-05-06 19:52 53.62770 10.00264 47 ft 1 kts 62°
2026-05-06 19:52 53.62773 10.00274 47 ft 1 kts 62°
2026-05-06 19:53 53.62774 10.00276 47 ft 0 kts 62°